Weather History for KSQI - September, 2013

Change the Weather History Date:

Tuesday, September 17, 2013

  Actual Average Record
Temperature  
Mean Temperature 58 °F -  
Max Temperature 71 °F 72 °F 89 °F (2007)
Min Temperature 44 °F 49 °F 39 °F (1999)
Degree Days  
Heating Degree Days 8    
Growing Degree Days 8 (Base 50)    
Moisture  
Dew Point 50 °F    
Average Humidity 77    
Maximum Humidity 94    
Minimum Humidity 53    
Precipitation  
Precipitation 0.02 in - - ()
Sea Level Pressure  
Sea Level Pressure 30.23 in    
Wind  
Wind Speed 6 mph (ESE)    
Max Wind Speed 14 mph    
Max Gust Speed 18 mph    
Visibility 9 miles    
Events      
Averages and records for this station are not official NWS values.
T = Trace of Precipitation, MM = Missing Value Source: NWS Daily Summary

Daily Weather History Graph

Daily Weather History Graph

Search for Another Location

Airport or City:

Trip Planner

Search our weather history database for the weather conditions in past years. The results will help you decide how hot, cold, wet, or windy it might be!

Date:

Astronomy

Sep. 17, 2013 Rise Set
Actual Time 6:41 AM CDT 7:04 PM CDT
Civil Twilight 6:13 AM CDT 7:31 PM CDT
Nautical Twilight 5:40 AM CDT 8:04 PM CDT
Astronomical Twilight 5:06 AM CDT 8:38 PM CDT
Moon 5:51 PM CDT (9/17) 4:34 AM CDT (9/17)
Length of Visible Light 13h 18m
Length of Day
12h 22m
Waxing Gibbous, 96% of the Moon is Illuminated
Sep 17
Waxing Gibbous
Sep 19
Full
Sep 26
Last Quarter
Oct 4
New
Oct 11
First Quarter

Hourly Weather History & Observations

Time (CDT) Temp. Windchill Dew Point Humidity Pressure Visibility Wind Dir Wind Speed Gust Speed Precip Events Conditions
12:15 AM 44.6 °F 41.4 °F 42.8 °F 93% 30.34 in 10.0 mi ENE 5.8 mph - N/A   Clear
12:35 AM 44.6 °F 40.7 °F 41.0 °F 87% 30.33 in 10.0 mi ENE 6.9 mph - N/A   Clear
12:55 AM 44.6 °F 41.4 °F 42.8 °F 93% 30.33 in 10.0 mi East 5.8 mph - N/A   Clear
1:15 AM 44.6 °F 41.4 °F 42.8 °F 93% 30.33 in 10.0 mi East 5.8 mph - N/A   Clear
1:35 AM 44.6 °F 43.1 °F 42.8 °F 93% 30.33 in 10.0 mi East 3.5 mph - N/A   Clear
1:55 AM 44.6 °F 43.1 °F 42.8 °F 93% 30.33 in 10.0 mi East 3.5 mph - N/A   Clear
2:15 AM 44.6 °F - 42.8 °F 93% 30.33 in 10.0 mi Calm Calm - N/A   Clear
2:35 AM 44.6 °F 43.1 °F 42.8 °F 93% 30.33 in 10.0 mi East 3.5 mph - N/A   Clear
2:55 AM 44.6 °F - 42.8 °F 93% 30.33 in 10.0 mi Calm Calm - N/A   Clear
3:15 AM 44.6 °F - 42.8 °F 93% 30.33 in 10.0 mi Calm Calm - N/A   Clear
3:35 AM 46.4 °F 45.2 °F 42.8 °F 87% 30.32 in 10.0 mi East 3.5 mph - N/A   Clear
3:55 AM 46.4 °F 44.3 °F 42.8 °F 87% 30.32 in 10.0 mi East 4.6 mph - N/A   Clear
4:15 AM 44.6 °F 41.4 °F 42.8 °F 93% 30.32 in 10.0 mi East 5.8 mph - N/A   Clear
4:35 AM 44.6 °F 42.2 °F 42.8 °F 93% 30.32 in 10.0 mi East 4.6 mph - N/A   Clear
4:55 AM 44.6 °F 42.2 °F 42.8 °F 93% 30.31 in 10.0 mi East 4.6 mph - N/A   Clear
5:15 AM 44.6 °F 42.2 °F 42.8 °F 93% 30.30 in 9.0 mi East 4.6 mph - N/A   Clear
5:35 AM 44.6 °F 41.4 °F 41.0 °F 87% 30.30 in 8.0 mi ENE 5.8 mph - N/A   Clear
5:55 AM 44.6 °F 42.2 °F 42.8 °F 93% 30.30 in 7.0 mi East 4.6 mph - N/A   Clear
6:15 AM 44.6 °F 41.4 °F 41.0 °F 87% 30.30 in 5.0 mi East 5.8 mph - N/A   Clear
6:35 AM 44.6 °F 41.4 °F 41.0 °F 87% 30.30 in 5.0 mi East 5.8 mph - N/A   Clear
6:55 AM 44.6 °F 42.2 °F 41.0 °F 87% 30.30 in 4.0 mi East 4.6 mph - N/A   Clear
7:15 AM 46.4 °F 44.3 °F 42.8 °F 87% 30.31 in 4.0 mi East 4.6 mph - N/A   Clear
7:35 AM 46.4 °F 44.3 °F 44.6 °F 93% 30.31 in 4.0 mi East 4.6 mph - N/A   Clear
7:55 AM 50.0 °F - 48.2 °F 94% 30.31 in 5.0 mi ESE 5.8 mph - N/A   Clear
8:15 AM 51.8 °F - 48.2 °F 88% 30.31 in 9.0 mi ESE 5.8 mph - N/A   Clear
8:35 AM 53.6 °F - 48.2 °F 82% 30.31 in 9.0 mi ESE 4.6 mph - N/A   Clear
8:55 AM 55.4 °F - 51.8 °F 88% 30.31 in 10.0 mi SE 6.9 mph - N/A   Clear
9:15 AM 55.4 °F - 50.0 °F 82% 30.31 in 10.0 mi ESE 5.8 mph - N/A   Clear
9:35 AM 57.2 °F - 51.8 °F 82% 30.30 in 10.0 mi East 8.1 mph - N/A   Clear
9:55 AM 60.8 °F - 51.8 °F 72% 30.30 in 10.0 mi ESE 10.4 mph - N/A   Clear
10:15 AM 62.6 °F - 51.8 °F 68% 30.29 in 10.0 mi ESE 8.1 mph - N/A   Clear
10:35 AM 64.4 °F - 51.8 °F 64% 30.29 in 10.0 mi SE 6.9 mph - N/A   Partly Cloudy
10:55 AM 66.2 °F - 53.6 °F 64% 30.28 in 10.0 mi SE 8.1 mph - N/A   Mostly Cloudy
11:15 AM 66.2 °F - 51.8 °F 60% 30.28 in 10.0 mi South 5.8 mph - N/A   Overcast
11:35 AM 66.2 °F - 51.8 °F 60% 30.27 in 10.0 mi SSE 9.2 mph - N/A   Overcast
11:55 AM 68.0 °F - 53.6 °F 60% 30.27 in 10.0 mi SSE 10.4 mph - N/A   Mostly Cloudy
12:15 PM 69.8 °F - 53.6 °F 56% 30.25 in 10.0 mi ESE 9.2 mph - N/A   Scattered Clouds
12:35 PM 71.6 °F - 53.6 °F 53% 30.25 in 10.0 mi ESE 13.8 mph 18.4 mph N/A   Scattered Clouds
12:55 PM 69.8 °F - 51.8 °F 53% 30.25 in 10.0 mi SSE 5.8 mph - N/A   Overcast
1:15 PM 71.6 °F - 53.6 °F 53% 30.23 in 10.0 mi SSE 10.4 mph - N/A   Overcast
1:35 PM 69.8 °F - 53.6 °F 56% 30.22 in 10.0 mi SE 11.5 mph - N/A   Mostly Cloudy
1:55 PM 71.6 °F - 53.6 °F 53% 30.21 in 10.0 mi SE 9.2 mph - N/A   Scattered Clouds
2:15 PM 69.8 °F - 53.6 °F 56% 30.20 in 10.0 mi South 6.9 mph - N/A   Mostly Cloudy
2:35 PM 69.8 °F - 53.6 °F 56% 30.20 in 10.0 mi SE 10.4 mph - N/A   Scattered Clouds
2:55 PM 69.8 °F - 53.6 °F 56% 30.19 in 10.0 mi SSE 5.8 mph - N/A   Partly Cloudy
3:15 PM 69.8 °F - 53.6 °F 56% 30.18 in 10.0 mi SSE 8.1 mph - N/A   Partly Cloudy
3:35 PM 69.8 °F - 55.4 °F 60% 30.17 in 10.0 mi SSE 10.4 mph - N/A   Partly Cloudy
3:55 PM 69.8 °F - 53.6 °F 56% 30.17 in 10.0 mi SSE 8.1 mph - N/A   Clear
4:15 PM 69.8 °F - 55.4 °F 60% 30.17 in 10.0 mi SE 9.2 mph - N/A   Clear
4:35 PM 69.8 °F - 53.6 °F 56% 30.16 in 10.0 mi SE 8.1 mph - N/A   Clear
4:55 PM 69.8 °F - 55.4 °F 60% 30.15 in 10.0 mi ESE 8.1 mph - N/A   Partly Cloudy
5:15 PM 68.0 °F - 55.4 °F 64% 30.15 in 10.0 mi SE 6.9 mph - N/A   Scattered Clouds
5:35 PM 68.0 °F - 55.4 °F 64% 30.15 in 10.0 mi ESE 6.9 mph - N/A   Mostly Cloudy
5:55 PM 66.2 °F - 55.4 °F 68% 30.14 in 10.0 mi ESE 5.8 mph - N/A   Overcast
6:15 PM 66.2 °F - 55.4 °F 68% 30.14 in 6.0 mi ESE 4.6 mph - 0.01 in   Mostly Cloudy
6:35 PM 62.6 °F - 59.0 °F 88% 30.14 in 8.0 mi East 4.6 mph - 0.02 in   Mostly Cloudy
6:55 PM 62.6 °F - 57.2 °F 82% 30.13 in 10.0 mi East 5.8 mph - 0.02 in   Mostly Cloudy
7:15 PM 62.6 °F - 59.0 °F 88% 30.12 in 10.0 mi East 6.9 mph - N/A   Overcast
7:35 PM 62.6 °F - 57.2 °F 82% 30.12 in 10.0 mi East 4.6 mph - N/A   Scattered Clouds
7:55 PM 60.8 °F - 57.2 °F 88% 30.12 in 10.0 mi East 5.8 mph - N/A   Scattered Clouds
8:15 PM 60.8 °F - 57.2 °F 88% 30.12 in 10.0 mi East 4.6 mph - N/A   Mostly Cloudy
8:35 PM 60.8 °F - 57.2 °F 88% 30.12 in 10.0 mi East 4.6 mph - N/A   Overcast
8:55 PM 60.8 °F - 57.2 °F 88% 30.12 in 10.0 mi East 4.6 mph - N/A   Mostly Cloudy
9:15 PM 60.8 °F - 57.2 °F 88% 30.12 in 10.0 mi ESE 4.6 mph - N/A   Mostly Cloudy
9:35 PM 62.6 °F - 57.2 °F 82% 30.11 in 10.0 mi ESE 4.6 mph - N/A   Overcast
9:55 PM 62.6 °F - 57.2 °F 82% 30.11 in 10.0 mi ESE 3.5 mph - N/A   Overcast
10:15 PM 62.6 °F - 55.4 °F 77% 30.11 in 10.0 mi ESE 5.8 mph - N/A   Overcast
10:35 PM 62.6 °F - 55.4 °F 77% 30.11 in 10.0 mi ESE 5.8 mph - N/A   Overcast
10:55 PM 62.6 °F - 53.6 °F 72% 30.10 in 10.0 mi ESE 6.9 mph - N/A   Mostly Cloudy
11:15 PM 62.6 °F - 53.6 °F 72% 30.10 in 10.0 mi ESE 5.8 mph - N/A   Mostly Cloudy
11:35 PM 60.8 °F - 53.6 °F 77% 30.10 in 10.0 mi SE 5.8 mph - N/A   Mostly Cloudy
11:55 PM 62.6 °F - 53.6 °F 72% 30.09 in 10.0 mi SE 5.8 mph - N/A   Overcast